Regional Weather Roundup
Issued by NWS

Home | Current Version | Previous Version | Graphics & Text | Print | Product List | Glossary On
Versions: 1 2 3 4 5 6 7 8 9 10 11 12 13 14 15 16 17 18 19 20 21 22 23 24 25 26 27 28 29 30 31 32 33 34 35 36 37 38 39 40 41 42 43 44 45 46 47 48 49 50
000
ASUS43 KIND 221159
RWRIN

WEATHER ROUNDUP FOR INDIANA
NATIONAL WEATHER SERVICE INDIANAPOLIS IN
700 AM EST SAT NOV 22 2014

NOTE: "FAIR" INDICATES FEW OR NO CLOUDS BELOW 12,000 FEET WITH NO
SIGNIFICANT WEATHER AND/OR OBSTRUCTIONS TO VISIBILITY.

* - STATION DOES NOT REPORT WEATHER SUCH AS PRECIPITATION OR FOG.

+ - STATION NOT QUALITY CONTROLLED BY THE NATIONAL WEATHER SERVICE.
    USE DATA WITH CAUTION...ESPECIALLY DEWPOINT AND RELATIVE
    HUMIDITY OBSERVATIONS.

INZ001>003-010>013-019-020-221300-
NORTHWEST INDIANA

CITY           SKY/WX    TMP DP  RH WIND       PRES   REMARKS
GARY /AIRPORT/ CLOUDY    37  34  87 S13G26    30.08F
VALPARAISO     NOT AVBL

$$

LMZ046-743>745-221300-
SOUTHERN LAKE MICHIGAN

STATION/POSITION TIME  TEMP WIND        PRES
                       AIR  DIR/SP/G
                 (UTC) (F)  (DEG/KT/KT) (MB)
MICHIGAN CITY    1100   36  170/ 19/ 25   N/A

$$

INZ004-005-014>016-021>024-221300-
NORTH CENTRAL INDIANA

CITY           SKY/WX    TMP DP  RH WIND       PRES   REMARKS
GOSHEN         CLOUDY    34  32  92 S7        30.11F WCI  28
6HR MIN TEMP:  29; 6HR MAX TEMP:  34; 6HR PCP:  0.08;

SOUTH BEND     CLOUDY    34  31  88 SW13      30.11F WCI  25
6HR MIN TEMP:  31; 6HR MAX TEMP:  35; 6HR PCP:  0.05;


$$

INZ006>009-017-018-025>027-221300-
NORTHEAST INDIANA

CITY           SKY/WX    TMP DP  RH WIND       PRES   REMARKS
ANGOLA *+      CLOUDY    34  30  86 SW12      30.12F WCI  25
FORT WAYNE     CLOUDY    36  33  89 SW10      30.16F
6HR MIN TEMP:  26; 6HR MAX TEMP:  36; 6HR PCP:  0.16;


$$

INZ028-029-035-036-043>045-051>053-221300-
WEST CENTRAL INDIANA

CITY           SKY/WX    TMP DP  RH WIND       PRES   REMARKS
GREENCASTLE +  CLOUDY    45  34  65 S12G18    30.18F
LAFAYETTE      CLOUDY    39  32  76 SW6       30.14F
6HR MIN TEMP:  32; 6HR MAX TEMP:  39; 6HR PCP:  0.10;

TERRE HAUTE    CLOUDY    42  32  67 S10       30.19F
6HR MIN TEMP:  35; 6HR MAX TEMP:  42; 6HR PCP:  0.02;


$$

INZ030>032-037>040-046>048-054>057-064-065-221300-
CENTRAL INDIANA

CITY           SKY/WX    TMP DP  RH WIND       PRES   REMARKS
CP ATTERBURY + CLOUDY    34  32  93 S6        30.23F WCI  29
COLUMBUS       CLOUDY    34  30  86 S7        30.24  WCI  28
FRANKFORT +    MOCLDY    38  34  84 S12       30.16S
INDIANAPOLIS   CLOUDY    37  32  82 S10       30.19F
6HR MIN TEMP:  31; 6HR MAX TEMP:  37; 6HR PCP: TRACE;

-EAGLE CREEK   CLOUDY    37  32  82 S8        30.18F
6HR MIN TEMP:  31; 6HR MAX TEMP:  37; 6HR PCP: TRACE;

KOKOMO *+      CLOUDY    37  32  81 S16       30.14F
MT COMFORT *+  PTCLDY    34  25  69 S13       30.20F WCI  25
SHELBYVILLE    CLOUDY    37  30  75 S13       30.22F
6HR MIN TEMP:  33; 6HR MAX TEMP:  37; 6HR PCP:  0.02;


$$

INZ033-034-041-042-049-050-058-059-221300-
EAST CENTRAL INDIANA

CITY           SKY/WX    TMP DP  RH WIND       PRES   REMARKS
MUNCIE         CLOUDY    38  32  79 S12       30.18F
6HR MIN TEMP:  31; 6HR MAX TEMP:  38; 6HR PCP:  0.02;


$$

INZ060-061-067>069-081>083-085>088-221300-
SOUTHWEST INDIANA

CITY           SKY/WX    TMP DP  RH WIND       PRES   REMARKS
EVANSVILLE     CLOUDY    46  34  62 S5        30.25F
6HR MIN TEMP:  40; 6HR MAX TEMP:  46; 6HR PCP:  0.01;

HUNTINGBURG *+ MOCLDY    45  36  70 S12       30.26S
6HR MIN TEMP:  37; 6HR MAX TEMP:  45;


$$

INZ062-063-066-070>080-084-089>092-221300-
SOUTH CENTRAL AND SOUTHEAST INDIANA

CITY           SKY/WX    TMP DP  RH WIND       PRES   REMARKS
BLOOMINGTON    CLOUDY    36  32  85 SE8       30.21F
6HR MIN TEMP:  32; 6HR MAX TEMP:  36; 6HR PCP:  0.02;


$$



USA.gov is the U.S. government's official web portal to all federal, state and local government web resources and services.